Volver al catálogo

STARLINK-4252

ActivoComunicacionesSSO
NORAD 53057·PAYLOAD·🇺🇸 United States

Lanzado Jul 11, 2022 desde Vandenberg Space Force Base

Loading…

Próximos Pases (próximas 24 horas)

TLE

ActualizadoSource: CelesTrak SupGP

Época: Sep 14, 2026, 20:30 UTC

1 53057C 22077Q   26257.85465278  .00090010  00000+0  27938-2 0  2572
2 53057  97.2856  73.6746 0001550  92.8274   3.1328 15.33397671    18

Sigue STARLINK-4252 en tiempo real con AllMySat

Download on the App Store